Location: Arapaho Elementary School
(32.9607°N, 96.7625°W)
Time: 12:03:54
(UTC+00:00)

Cosmos 2228 Rocket - Pass Details

Date: 03 July 2022
Orbit: 618 x 651 km, 82.5° (Epoch: 13 August)

Event Time Altitude Azimuth Distance (km) Brightness Sun altitude
Rises 08:52:17 0° 22° (NNE) 2,916 7.8 -24.8°
Reaches altitude 10° 08:56:55 10° 66° (ENE) 2,012 6.5 -24.2°
Maximum altitude 08:57:26 10° 73° (ENE) 2,001 6.4 -24.1°
Drops below altitude 10° 08:57:57 10° 80° (E) 2,013 6.3 -24.1°
Sets 09:02:35 0° 124° (SE) 2,925 6.6 -23.5°
